KG5VSR Weather Reports


time (UTC)temp
C
wind
direction
speed
KPH
gust
KPH
rain 1hr
cm
rain 24hr
cm
rain mn
cm
humidity
%
barometer
mb
20260509085814 21 183 4.8 4.8 0.00 0.00 0.00 97 1006.9
20260509082814 21 158 1.6 3.2 0.00 0.00 0.00 96 1008.7
20260509075810 21 126 3.2 3.2 0.00 0.00 0.00 95 1010.1
20260509072808 21 166 1.6 1.6 0.00 0.00 0.00 94 1010.8
20260509065805 21 283 0.0 0.0 0.00 0.00 0.00 94 1010.6
20260509062804 21 216 0.0 0.0 0.00 0.00 0.00 94 1010.8
20260509055802 21 286 0.0 0.0 0.00 0.00 0.00 92 1011.4
20260509052803 21 354 1.6 1.6 0.00 0.00 0.00 90 1011.7
20260509045757 22 173 1.6 3.2 0.00 0.00 0.00 88 1010.3
20260509042754 22 185 3.2 3.2 0.00 0.00 0.00 87 1010.5
20260509035754 22 23 0.0 0.0 0.00 0.00 0.00 85 1011.2
20260509032753 22 150 3.2 3.2 0.00 0.00 0.00 85 1010.3
20260509025749 22 210 0.0 0.0 0.00 0.00 0.00 85 1010.1
20260509022744 22 149 1.6 3.2 0.00 0.00 0.00 84 1009.8
20260509015741 22 186 1.6 1.6 0.00 0.00 0.00 83 1009.3
20260509012739 22 152 1.6 3.2 0.00 0.00 0.00 82 1009.4
20260509005734 22 216 1.6 1.6 0.00 0.00 0.00 82 1008.7
20260509002733 23 188 3.2 3.2 0.00 0.00 0.00 80 1008.7
20260508235733 23 144 1.6 1.6 0.00 0.00 0.00 79 1009.1
20260508232729 23 194 0.0 1.6 0.00 0.00 0.00 77 1009.2
20260508225729 24 159 4.8 8.0 0.00 0.00 0.00 74 1009.4
20260508222724 24 155 4.8 4.8 0.00 0.00 0.00 72 1009.4
20260508215719 24 146 6.4 9.7 0.00 0.00 0.00 73 1009.2
20260508212717 24 71 0.0 1.6 0.00 0.00 0.00 73 1008.8
20260508205714 22 164 3.2 4.8 0.00 0.00 0.00 76 1010.1
20260508202709 22 187 1.6 1.6 0.00 0.00 0.00 77 1011.3
20260508195707 23 219 3.2 3.2 0.00 0.00 0.00 73 1011.2
20260508192704 24 126 4.8 8.0 0.00 0.00 0.00 71 1011.3
20260508185703 24 215 4.8 9.7 0.00 0.00 0.00 70 1011.6
20260508182701 25 170 3.2 4.8 0.00 0.00 0.00 65 1011.8
20260508175659 25 200 1.6 1.6 0.00 0.00 0.00 66 1012.3
20260508172658 25 132 4.8 4.8 0.00 0.00 0.00 63 1012.6
20260508165656 24 226 3.2 3.2 0.00 0.00 0.00 66 1013.5
20260508162654 23 166 1.6 3.2 0.00 0.00 0.00 67 1014.1
20260508155651 22 149 8.0 9.7 0.00 0.00 0.00 69 1014.5
20260508152649 21 169 4.8 4.8 0.00 0.00 0.00 71 1015.0
20260508145646 20 151 3.2 3.2 0.00 0.00 0.00 71 1015.1
20260508142645 20 159 4.8 8.0 0.00 0.00 0.00 73 1015.0
20260508135643 20 185 4.8 4.8 0.00 0.00 0.00 73 1015.4
20260508132642 18 113 0.0 1.6 0.00 0.00 0.00 77 1014.9
20260508125643 16 68 0.0 0.0 0.00 0.00 0.00 90 1015.5
20260508122638 15 232 0.0 0.0 0.00 0.00 0.00 94 1015.6
20260508115636 15 295 0.0 0.0 0.00 0.00 0.00 94 1015.5
20260508112634 15 334 0.0 0.0 0.00 0.00 0.00 93 1015.4
20260508105631 15 280 0.0 0.0 0.00 0.00 0.00 94 1015.7
20260508102626 15 190 0.0 0.0 0.00 0.00 0.00 92 1014.4
20260508095627 15 179 1.6 1.6 0.00 0.00 0.00 92 1014.6
20260508092621 16 197 0.0 0.0 0.00 0.00 0.00 91 1014.8